TimeEDT,TemperatureF,Dew PointF,Humidity,Sea Level PressureIn,VisibilityMPH,Wind Direction,Wind SpeedMPH,Gust SpeedMPH,PrecipitationIn,Events,Conditions,WindDirDegrees,DateUTC
12:56 AM,72.0,66.9,84,29.89,7.0,SSW,3.5,-,N/A,,Clear,210,2013-06-18 04:56:00
1:56 AM,72.0,66.9,84,29.89,7.0,SW,9.2,-,N/A,,Mostly Cloudy,230,2013-06-18 05:56:00
2:56 AM,70.9,65.8,84,29.89,7.0,WSW,6.9,-,N/A,,Partly Cloudy,240,2013-06-18 06:56:00
3:56 AM,68.9,64.9,87,29.87,7.0,WSW,4.6,-,N/A,,Clear,250,2013-06-18 07:56:00
4:56 AM,68.9,65.8,90,29.87,7.0,SSW,3.5,-,N/A,,Partly Cloudy,200,2013-06-18 08:56:00
5:56 AM,68.0,65.8,93,29.88,6.0,SSW,4.6,-,N/A,,Mostly Cloudy,210,2013-06-18 09:56:00
6:21 AM,68.0,66.2,94,29.92,2.5,SSE,6.9,-,0.05,Rain,Light Rain,160,2013-06-18 10:21:00
6:25 AM,68.0,66.2,94,29.92,1.2,South,10.4,-,0.17,Rain,Heavy Rain,180,2013-06-18 10:25:00
6:29 AM,66.2,64.4,94,29.92,1.0,South,10.4,-,0.21,Rain,Heavy Rain,180,2013-06-18 10:29:00
6:33 AM,66.2,64.4,94,29.92,1.2,South,10.4,-,0.23,Rain,Rain,170,2013-06-18 10:33:00
6:37 AM,66.2,64.4,94,29.91,1.8,SSW,13.8,-,0.26,Rain-Thunderstorm,Heavy Thunderstorms and Rain,200,2013-06-18 10:37:00
6:43 AM,66.2,64.4,94,29.92,2.0,South,10.4,18.4,0.27,Rain-Thunderstorm,Light Thunderstorms and Rain,190,2013-06-18 10:43:00
6:56 AM,66.9,64.9,93,29.90,4.0,SSW,9.2,-,0.28,Rain-Thunderstorm,Light Thunderstorms and Rain,200,2013-06-18 10:56:00
7:43 AM,66.2,64.4,94,29.93,4.0,SSW,5.8,-,0.00,Rain,Light Rain,210,2013-06-18 11:43:00
7:56 AM,66.9,64.9,93,29.92,4.0,SSW,6.9,-,0.00,,Mostly Cloudy,200,2013-06-18 11:56:00
8:56 AM,66.9,64.9,93,29.93,5.0,WSW,8.1,-,N/A,,Partly Cloudy,240,2013-06-18 12:56:00
9:56 AM,68.9,65.8,90,29.93,4.0,West,6.9,-,N/A,,Clear,260,2013-06-18 13:56:00
10:56 AM,73.9,66.9,79,29.92,6.0,West,5.8,-,N/A,,Haze,280,2013-06-18 14:56:00
11:56 AM,77.0,66.9,71,29.93,6.0,Calm,Calm,-,N/A,,Haze,0,2013-06-18 15:56:00
12:56 PM,81.0,63.9,56,29.91,7.0,Variable,5.8,-,N/A,,Scattered Clouds,0,2013-06-18 16:56:00
1:56 PM,81.9,63.9,54,29.91,7.0,Variable,5.8,-,N/A,,Partly Cloudy,0,2013-06-18 17:56:00
2:56 PM,82.9,63.9,52,29.89,7.0,NNW,9.2,-,N/A,,Partly Cloudy,330,2013-06-18 18:56:00
3:56 PM,81.9,64.9,56,29.90,7.0,NNE,11.5,-,N/A,,Partly Cloudy,20,2013-06-18 19:56:00
4:56 PM,81.9,64.9,56,29.90,7.0,NNE,11.5,-,N/A,,Partly Cloudy,30,2013-06-18 20:56:00
5:56 PM,79.9,61.9,54,29.90,7.0,North,13.8,-,N/A,,Clear,360,2013-06-18 21:56:00
6:56 PM,77.9,61.9,58,29.90,7.0,North,11.5,19.6,N/A,,Clear,10,2013-06-18 22:56:00
7:56 PM,73.9,61.9,66,29.94,5.0,NNE,13.8,-,N/A,,Haze,30,2013-06-18 23:56:00
8:56 PM,70.0,59.9,70,29.97,5.0,NNE,17.3,-,N/A,,Haze,30,2013-06-19 00:56:00
9:56 PM,66.9,57.9,73,29.99,7.0,NE,11.5,-,N/A,,Clear,40,2013-06-19 01:56:00
10:56 PM,64.9,56.8,75,30.00,6.0,NE,17.3,-,N/A,,Haze,40,2013-06-19 02:56:00
11:56 PM,63.0,55.9,78,30.02,8.0,NE,13.8,-,N/A,,Clear,40,2013-06-19 03:56:00